Regional Weather Roundup
Issued by NWS Tampa Bay Area, FL

Home | Current Version | Previous Version | Text Only | Print | Product List | Glossary On
Versions: 1 2 3 4 5 6 7 8 9 10 11 12 13 14 15 16 17 18 19 20 21 22 23 24 25 26 27 28 29 30 31 32 33 34 35 36 37 38 39 40 41 42 43 44 45 46 47 48 49 50
000
NZUS99 KTBW 200416
RWRTBW
Regional Weather Roundup National Weather Service Ruskin Florida
1200 AM EDT MON MAY 20 2019


CITY           SKY/WX    TMP DP  RH WIND       PRES   REMARKS
Cross City     FAIR      68  65  90 CALM      30.02F
Williston      FAIR      67  61  81 CALM      30.04S
Gainesville    FAIR      75  67  76 CALM      30.07S
Ocala          FAIR      76  67  73 CALM      30.05S
Crystal River  MOCLDY    72  64  78 CALM      30.04S
Inverness      FAIR      72  70  94 CALM      30.06S
Leesburg       FAIR      76  69  79 SE7       30.05S
Orlando        FAIR      75  70  84 SE7       30.05S
Brooksville    FAIR      73  64  73 NE3       30.05S
Lakeland       FAIR      77  66  69 CALM      30.05S
Winter Haven   FAIR      77  70  79 E7        30.06R
Bartow         FAIR      73  68  83 CALM      30.04S

CITY           SKY/WX    TMP DP  RH WIND       PRES   REMARKS
Tampa Intl     FAIR      80  63  55 NE3       30.04S
Tampa Exec     MOCLDY    72  63  73 CALM      30.05S
MacDill AFB    FAIR      74  64  70 SE5       30.03S
Peter O Knight CLOUDY    79  66  65 E7        30.04S
Plant City     FAIR      77  68  73 CALM      30.07S
Clearwater     MOCLDY    79  63  57 NE6       30.03R
St Petersburg  FAIR      81  67  62 NE7       30.01S
Sarasota       FAIR      77  68  73 NE5       30.00F
Sebring        FAIR      73  69  88 E7        30.04F
Punta Gorda    CLOUDY    73  70  90 E5        30.04S
Ft Myers       CLOUDY    77  68  73 SE5       30.02S
Ft Myers-RSW   CLOUDY    77  67  71 VRB6      30.03R
Naples         CLOUDY    76  67  73 CALM      30.03R

STATION/POSITION SKY/WX   TEMP WIND        PRES    VSBY
                          AIR  DIR/SP/G
                          (F)  (DEG/KT/KT) (MB)    (MI)
Keaton Beach               78  240/  6/  7 1016.5F
Sand Key                   81              1016.2R
Venice                     77   60/  4/  6 1016.5R
Cedar Key                  78  300/  3/  3 1016.5F

CITY           SKY/WX    TMP DP  RH WIND       PRES   REMARKS
Tallahassee    FAIR      70  65  84 CALM      30.01F
Daytona Beach  FAIR      76  73  91 VRB3      30.05S
Melbourne      FAIR      80  69  69 SE12      30.04S
W Palm Beach   FAIR      80  68  66 SE12      30.04S
Miami          FAIR      80  70  71 E8        30.03S
Key West       FAIR      81  71  71 E10       30.01S
San Juan, PR   PTCLDY    81  73  78 CALM      30.01S
Cancun, MX     PTCLDY    82  77  83 E8        29.95R




USA.gov is the U.S. government's official web portal to all federal, state and local government web resources and services.